NOAA 1 [-] 1 04793U 70106A 12039.57058176 -.00000031 00000-0 10000-3 0 1666 2 04793 102.0811 63.6492 0031856 40.2789 320.0632 12.53950714884048 NOAA 2 [-] 1 06235U 72082A 12039.56779319 -.00000027 00000-0 10000-3 0 2657 2 06235 101.4143 33.5760 0003713 190.1202 169.9797 12.53021648798504 NOAA 3 [-] 1 06920U 73086A 12039.55255485 -.00000030 00000-0 10000-3 0 1579 2 06920 101.7055 40.1427 0006648 149.8094 210.3355 12.40322279732086 NOAA 4 [-] 1 07529U 74089A 12039.54334586 -.00000027 00000-0 10000-3 0 1675 2 07529 101.4117 41.9377 0008887 227.7228 132.3091 12.53069249703080 NOAA 5 [-] 1 09057U 76077A 12039.60292680 -.00000030 00000-0 10000-3 0 456 2 09057 101.7937 67.1912 0009524 347.5879 12.4948 12.37782386606052 TIROS N [P] 1 11060U 78096A 12038.93487138 .00000094 00000-0 68918-4 0 9949 2 11060 99.0354 35.5974 0010847 145.2917 214.8967 14.17641732935776 NOAA 6 [P] 1 11416U 79057A 12039.57735080 .00000209 00000-0 93292-4 0 9856 2 11416 98.4133 39.6072 0009550 280.9244 79.0865 14.32236398700023 NOAA 7 [-] 1 12553U 81059A 12039.45935942 .00000056 00000-0 49624-4 0 930 2 12553 98.7820 348.9932 0012380 69.0988 291.1510 14.16868022582354 NOAA 8 [-] 1 13923U 83022A 12039.61347450 .00000066 00000-0 43607-4 0 9983 2 13923 98.4803 60.3344 0015721 150.2471 209.9607 14.27854292502754 NOAA 9 [P] 1 15427U 84123A 12039.51588671 .00000245 00000-0 14654-3 0 8839 2 15427 98.5513 6.2731 0015157 155.8020 204.3864 14.15471086401651 NOAA 10 [-] 1 16969U 86073A 12039.49296402 -.00000040 00000-0 15718-5 0 8098 2 16969 98.5954 70.7684 0011462 253.6493 106.3447 14.27525668321367 NOAA 11 [-] 1 19531U 88089A 12039.31579357 -.00000199 00000-0 -80414-4 0 8088 2 19531 98.7383 127.1853 0010483 233.2132 126.8077 14.14950752206140 NOAA 12 [-] 1 21263U 91032A 12039.61492824 .00000035 00000-0 33763-4 0 2975 2 21263 98.7381 61.8287 0013092 215.1687 144.8629 14.25476403 78093 NOAA 13 [-] 1 22739U 93050A 12039.28521351 -.00000025 00000-0 10050-4 0 8180 2 22739 98.7937 120.1344 0009722 348.0910 12.0030 14.12320235953329 NOAA 14 [-] 1 23455U 94089A 12039.54449073 .00000036 00000-0 42182-4 0 7796 2 23455 98.8336 124.6482 0009110 333.6191 26.4517 14.13875290882476 NOAA 15 [P] 1 25338U 98030A 12039.23369788 -.00000010 00000-0 14310-4 0 1337 2 25338 98.6788 27.4432 0011377 123.6993 236.5273 14.25027141714347 NOAA 16 [P] 1 26536U 00055A 12039.21625436 .00000215 00000-0 14077-3 0 6173 2 26536 99.1135 79.2290 0011310 90.3583 269.8871 14.12704278586685 NOAA 17 [P] 1 27453U 02032A 12039.49208923 .00000185 00000-0 97776-4 0 5901 2 27453 98.3527 72.9970 0011882 172.4194 187.7192 14.24391594500292 NOAA 18 [+] 1 28654U 05018A 12039.49849848 .00000431 00000-0 26176-3 0 677 2 28654 99.0297 356.6222 0014585 157.0599 203.1219 14.11603284346267 NOAA 19 [+] 1 33591U 09005A 12039.47733520 .00000048 00000-0 50657-4 0 2555 2 33591 98.8529 340.9554 0014632 30.8020 329.4006 14.11289266154715 NPP [+] 1 37849U 11061A 12039.76010653 -.00000114 00000-0 -33531-4 0 979 2 37849 98.7054 339.3585 0001506 59.5914 300.5411 14.19542103 14679